Starlink 11243

operational
NORAD ID: 60927 Int'l Des: 2024-155 Owner: SPXS Country: US Constellation: starlink
LEOCIRCULAR

Über Starlink 11243

Beschreibung wird geladen...

Live-Position

3D-Globus wird geladen...

Nächste Überflüge

Höhenverlauf

Altitude vs Time

uPlot chart will show altitude changes over time

Zweizeiliger Elementsatz

1 60927U 24155D 26037.51128773 -.00003601 00000-0 -24893-4 0 9995
2 60927 53.1598 135.0872 0001409 55.7686 304.3465 15.69688858 83509
Epoch: 6. Feb. 2026 • Age: 12 hours

Aktueller Status

Höhe 359.2 km
Geschwindigkeit 7.70 km/s
Subsatellitenpunkt 13.48°N, 2.81°W
Startdatum 31. Aug. 2024
Alter 1.4 years
Typ internet

Technische Details

Klassifizierung Payload
Masse 960.00 kg
Trockenmasse 910.00 kg
Gesamtmasse 960.00 kg
Länge 0.30 m
Durchmesser 4.10 m
Spannweite 29.00 m
Form Box + pan
Hersteller SPXS
Bus-Typ Starlink V2MD
Phasenstatus In Orbit
Besitzer/Staat SPXS/US

Große Konstellationen

Loading constellations...